User: anonymous   Login
Location: *
(48.7358°N, 0.3111°E)
Time: 23:48:06
(UTC+00:00)
Language:

MSX - Orbit

View from above orbital plane
View from above orbital plane
View from above satellite
View from above satellite

Ground track
Ground track

The orbit data is extracted from the following two-line orbital elements,

1 23851U 96024A   19346.79353064  .00000019  00000-0  42458-4 0  9997
2 23851  98.7528 315.5981 0007293 334.7629  25.3178 13.98085265205951
Epoch (UTC): 12 December 2019 19:02:41
Eccentricity: 0.0007293
inclination: 98.7528°
perigee height: 895 km
apogee height: 906 km
right ascension of ascending node: 315.5981°
argument of perigee: 334.7629°
revolutions per day: 13.98085265
mean anomaly at epoch: 25.3178°
orbit number at epoch: 20595

The dashed part of the orbit path shows where the satellite is in the earth's shadow,  

DLR